Tracking 35274 objects as of 11-Sep-2026
HD Live streaming from Space Station
objects crossing your sky now

COSMOS 2535 DEB

Track COSMOS 2535 DEB now!
10-day predictions


NORAD ID: 45011
Int'l Code: 2019-039AC
Launch date: July 10, 2019
Source: Commonwealth of Independent States (former USSR) (CIS)
Launch site: PLESETSK MISSILE AND SPACE COMPLEX (PKMTR)

Note: This is SATELLITE DEBRIS
Your satellite tracking list
Your tracking list is empty




NASA's NSSDC Master Catalog

Two Line Element Set (TLE):
1 45011U 19039AC  20014.08995997 -.00437279  00000-0 -90580-1 0  9993
2 45011  97.0487  68.2009 0128467 313.1128  45.9383 14.57307958   663
Source of the keplerian elements: AFSPC